TimeEDT,TemperatureF,Dew PointF,Humidity,Sea Level PressureIn,VisibilityMPH,Wind Direction,Wind SpeedMPH,Gust SpeedMPH,PrecipitationIn,Events,Conditions,WindDirDegrees,DateUTC
12:53 AM,69.1,66.9,93,30.10,10.0,SSW,6.9,-,N/A,,Clear,210,2013-07-08 04:53:00
1:53 AM,68.0,66.0,93,30.09,10.0,South,5.8,-,N/A,,Clear,190,2013-07-08 05:53:00
2:08 AM,68.0,66.2,94,30.10,8.0,SSW,6.9,-,N/A,,Scattered Clouds,200,2013-07-08 06:08:00
2:17 AM,69.8,66.2,88,30.09,9.0,SSW,6.9,-,N/A,,Mostly Cloudy,210,2013-07-08 06:17:00
2:53 AM,69.1,66.9,93,30.09,10.0,WSW,10.4,-,N/A,,Mostly Cloudy,240,2013-07-08 06:53:00
3:02 AM,69.8,66.2,88,30.10,10.0,SW,9.2,-,N/A,,Mostly Cloudy,230,2013-07-08 07:02:00
3:53 AM,69.1,64.0,84,30.09,10.0,SSW,4.6,-,N/A,,Mostly Cloudy,210,2013-07-08 07:53:00
4:53 AM,68.0,63.0,84,30.09,10.0,SW,5.8,-,N/A,,Clear,230,2013-07-08 08:53:00
5:53 AM,66.0,61.0,84,30.10,10.0,SSW,4.6,-,N/A,,Clear,210,2013-07-08 09:53:00
6:53 AM,66.0,62.1,87,30.11,10.0,SSW,4.6,-,N/A,,Mostly Cloudy,210,2013-07-08 10:53:00
7:53 AM,68.0,62.1,81,30.12,10.0,WSW,5.8,-,N/A,,Scattered Clouds,240,2013-07-08 11:53:00
8:53 AM,71.1,63.0,75,30.14,10.0,Variable,3.5,-,N/A,,Clear,0,2013-07-08 12:53:00
9:53 AM,73.0,63.0,71,30.14,10.0,WSW,10.4,-,N/A,,Scattered Clouds,240,2013-07-08 13:53:00
10:53 AM,75.9,64.0,67,30.13,10.0,SSW,9.2,-,N/A,,Partly Cloudy,200,2013-07-08 14:53:00
11:53 AM,77.0,64.9,66,30.13,10.0,WSW,8.1,-,N/A,,Overcast,250,2013-07-08 15:53:00
12:02 PM,77.0,64.4,65,30.14,10.0,West,5.8,-,N/A,,Overcast,260,2013-07-08 16:02:00
12:12 PM,77.0,64.4,65,30.14,10.0,WSW,11.5,-,N/A,,Mostly Cloudy,250,2013-07-08 16:12:00
12:53 PM,79.0,64.9,62,30.12,10.0,WSW,9.2,-,N/A,,Mostly Cloudy,240,2013-07-08 16:53:00
1:53 PM,80.1,64.9,60,30.11,10.0,WSW,5.8,-,N/A,,Scattered Clouds,250,2013-07-08 17:53:00
2:53 PM,81.0,66.0,60,30.10,10.0,SW,9.2,-,N/A,,Scattered Clouds,230,2013-07-08 18:53:00
3:53 PM,82.0,66.0,58,30.08,10.0,SW,10.4,-,N/A,,Mostly Cloudy,220,2013-07-08 19:53:00
4:53 PM,81.0,64.9,58,30.08,10.0,SW,11.5,-,N/A,,Overcast,220,2013-07-08 20:53:00
5:53 PM,82.9,64.9,54,30.07,10.0,West,10.4,17.3,N/A,,Mostly Cloudy,270,2013-07-08 21:53:00
6:53 PM,81.0,64.9,58,30.06,10.0,West,6.9,16.1,N/A,,Partly Cloudy,280,2013-07-08 22:53:00
7:53 PM,80.1,66.9,64,30.08,10.0,West,11.5,-,N/A,,Scattered Clouds,260,2013-07-08 23:53:00
8:53 PM,79.0,66.9,66,30.09,10.0,SW,6.9,-,N/A,,Clear,230,2013-07-09 00:53:00
9:53 PM,77.0,68.0,74,30.09,10.0,SSW,4.6,-,N/A,,Clear,200,2013-07-09 01:53:00
10:53 PM,75.0,68.0,79,30.10,10.0,South,5.8,-,N/A,,Clear,180,2013-07-09 02:53:00
11:53 PM,71.1,64.9,81,30.13,6.0,WNW,9.2,-,0.04,,Haze,300,2013-07-09 03:53:00